GFSSW_prec_cloud_057.txt.gz
Cloud_Cover
11 17 8 60 4 0 0 0 13 32 19 14 6 40 73 11 2 0 0 0 17 100 100 100 100 100 100 100 100 100 46 100 100 100 100 100 100 91 8 92 67 100 94 100 83
0 2 3 1 2 5 1 3 8 12 14 12 10 19 23 17 4 0 0 0 0 12 100 100 100 100 100 100 100 100 100 100 100 100 100 100 100 100 63 4 11 100 23 86 8
0 0 0 1 0 6 3 9 11 8 6 14 6 17 21 0 0 0 0 0 0 0 96 100 100 100 100 100 100 100 100 100 100 100 100 100 100 100 40 20 13 100 98 100 79
0 0 0 1 0 7 6 4 5 0 5 10 8 11 0 12 0 0 0 0 0 0 3 74 100 100 100 100 100 100 100 100 100 100 100 100 100 100 90 12 99 100 100 40 9
0 0 0 0 8 3 2 2 4 5 2 6 50 13 1 0 0 0 0 0 0 0 0 0 76 100 100 100 100 100 100 100 100 100 100 100 100 100 100 100 100 100 100 100 37
44 5 4 0 1 8 2 0 0 12 19 9 18 30 2 0 0 0 0 0 0 0 0 0 95 100 100 100 100 100 100 100 100 100 100 100 100 100 100 100 100 100 100 100 97
100 45 18 7 1 1 0 0 0 0 10 15 5 4 5 2 0 0 0 0 0 0 0 0 0 1 0 97 100 100 100 100 100 100 100 100 100 100 100 100 100 100 100 78 74
100 92 100 46 2 0 6 0 0 0 0 0 5 4 4 0 0 0 0 0 0 0 0 0 0 0 0 0 90 100 100 100 100 100 100 100 30 100 100 100 100 100 100 100 86
100 100 100 100 22 6 0 0 0 0 0 0 0 2 6 0 0 0 0 0 0 0 0 0 0 0 0 0 0 2 72 100 100 100 100 100 100 100 100 100 100 100 100 100 100
90 6 90 100 98 23 7 0 0 0 0 0 0 0 0 0 0 0 0 0 0 0 0 0 0 0 0 0 0 0 0 22 100 100 100 100 51 97 100 100 100 100 100 100 100
100 99 9 100 6 51 11 0 0 0 0 0 2 0 5 0 0 0 0 0 0 0 0 0 0 0 0 0 0 0 0 0 0 2 0 0 17 99 100 100 81 100 100 100 100
100 100 100 30 25 9 17 0 0 0 0 0 0 0 0 1 0 0 0 0 0 0 0 0 0 0 0 0 0 0 0 0 0 0 0 0 0 0 0 10 98 100 100 100 100
100 96 100 100 56 5 1 0 0 0 0 0 0 0 0 0 0 0 0 0 0 0 0 0 0 0 0 0 0 0 0 0 0 0 0 0 0 0 0 0 0 59 100 83 18
91 47 41 96 80 92 5 0 0 0 3 0 0 0 0 0 0 0 0 0 0 0 0 0 0 0 0 0 0 0 0 0 0 0 0 0 0 0 0 0 0 0 0 9 87
18 5 5 96 58 85 97 5 3 2 6 0 0 0 0 0 0 0 0 0 0 0 2 0 1 9 2 1 0 0 0 0 1 5 4 1 3 0 0 0 0 0 0 0 0
8 2 2 32 43 49 64 15 5 6 5 4 0 1 0 0 0 5 0 0 1 18 85 65 90 89 5 4 0 0 1 0 4 27 14 0 1 0 0 0 0 0 0 0 0
0 0 12 4 5 6 33 36 8 10 7 47 16 3 3 4 84 44 40 2 43 95 5 0 0 0 2 0 6 19 8 8 4 0 0 0 66 0 0 0 0 0 0 0 0
0 0 0 0 2 11 9 8 81 47 70 41 63 97 8 84 98 100 94 10 98 13 0 0 0 0 1 3 0 87 100 49 41 0 0 1 9 0 0 0 0 0 0 0 0
0 0 0 0 0 2 2 5 26 98 100 100 100 100 100 99 7 4 34 12 94 5 3 3 0 0 8 96 2 1 7 79 89 2 56 0 0 0 0 0 6 0 0 0 82
17 1 4 1 0 0 0 3 23 37 4 52 73 69 97 94 67 36 34 52 70 6 5 36 21 0 0 0 1 8 2 3 25 80 65 25 25 48 14 3 94 3 0 0 99
5 5 5 20 5 4 0 2 4 1 0 0 4 3 5 32 100 100 89 11 67 4 5 3 2 4 0 4 72 9 89 96 52 100 98 84 32 59 60 98 100 50 27 100 100
5 5 5 24 43 37 73 13 0 5 5 2 77 98 6 71 100 100 100 99 100 44 5 5 5 5 7 17 5 5 100 100 100 98 100 92 100 100 39 100 99 100 96 100 100
5 8 5 5 52 99 9 5 6 85 20 0 0 5 5 24 61 100 78 17 32 23 38 4 8 40 82 95 51 5 58 40 100 84 100 99 69 100 61 100 100 97 95 100 70
10 5 6 5 5 68 90 8 5 5 64 99 36 62 42 100 100 100 100 24 36 26 86 36 7 8 53 74 62 5 9 59 100 83 100 100 100 100 100 99 41 100 100 100 57
27 60 5 5 5 5 43 6 19 56 47 2 0 4 5 65 97 55 100 79 45 90 33 6 100 100 46 62 100 64 100 100 83 58 100 100 54 100 100 100 100 100 100 100 100
43 39 6 5 5 5 5 5 5 5 3 0 2 5 73 41 87 100 78 59 62 6 30 97 99 100 9 69 90 100 92 100 100 31 100 100 100 97 100 100 100 100 100 100 100
64 9 35 5 22 5 5 5 25 6 5 2 21 2 5 5 96 100 100 93 85 11 100 100 100 100 100 24 5 93 99 100 100 100 94 100 100 100 100 100 100 100 100 100 92

GFSSW_prec_cloud_060.txt.gz
Cloud_Cover
0 0 0 8 5 0 3 1 4 12 13 8 13 14 3 7 0 0 0 0 0 4 89 100 100 100 100 100 100 100 100 100 100 100 100 100 100 100 16 97 36 98 49 68 97
0 0 0 0 4 4 0 6 4 8 6 29 32 5 9 28 22 0 0 0 0 0 3 75 100 100 100 100 100 100 100 100 100 100 100 100 100 100 100 100 100 100 11 98 98
0 0 0 0 0 3 10 5 10 15 15 16 6 8 12 18 33 0 0 0 0 0 0 43 100 100 100 100 100 100 100 100 100 100 100 100 100 100 79 97 100 83 47 76 100
100 64 14 2 2 2 2 5 9 0 0 13 6 8 4 58 3 0 0 0 0 0 0 0 36 92 100 100 100 100 100 100 100 100 100 100 100 100 100 100 100 100 7 85 100
100 100 100 97 6 1 7 10 1 2 1 10 12 7 8 5 3 0 0 0 0 0 0 0 0 1 95 100 100 100 100 100 100 100 100 100 100 100 100 100 100 100 100 15 55
100 100 100 100 100 14 2 14 17 10 11 11 22 5 52 6 2 0 0 0 0 0 0 0 0 0 5 87 100 100 100 100 100 100 100 100 100 100 100 100 100 100 100 100 98
39 22 44 69 100 99 2 1 0 17 0 0 5 5 73 6 4 0 0 0 0 0 0 0 0 0 0 4 34 100 36 88 100 100 100 100 100 100 100 100 100 100 100 100 99
100 100 48 55 51 87 29 2 6 0 0 0 0 5 8 94 95 5 0 0 0 0 0 0 0 0 0 0 4 100 100 91 100 100 100 100 100 100 100 100 100 100 100 100 100
100 97 57 100 98 45 99 16 0 0 0 0 0 0 4 8 50 45 28 0 0 0 0 0 0 0 0 0 0 26 34 100 100 100 100 100 100 100 100 91 76 70 99 100 99
58 72 52 81 100 100 70 0 0 0 0 0 0 0 0 0 1 27 70 11 4 0 0 0 0 0 0 0 0 0 17 16 100 100 100 100 80 100 100 100 100 100 100 100 100
92 33 41 100 100 99 24 0 0 0 0 0 0 2 1 2 0 0 2 4 5 5 0 0 0 0 0 0 0 0 0 0 10 100 100 100 100 100 100 100 100 100 100 100 100
79 39 67 46 24 54 74 16 0 0 0 0 0 0 0 0 0 0 0 0 0 0 0 0 0 0 0 0 0 0 0 0 0 0 1 86 100 100 100 100 100 100 100 100 100
42 38 99 48 1 3 3 5 4 0 0 0 0 0 0 0 0 0 1 0 0 0 0 0 0 0 0 0 0 0 0 0 0 0 0 0 5 72 96 100 100 100 100 100 100
16 31 91 33 0 0 0 4 5 1 0 0 0 0 0 0 0 0 0 0 0 0 0 0 0 0 0 0 0 0 0 0 0 0 0 0 0 2 0 9 89 100 100 100 100
10 1 30 10 0 0 2 4 5 9 4 10 0 0 0 0 0 0 0 0 0 0 1 0 0 0 0 0 0 0 0 0 0 0 0 0 0 0 0 0 0 0 6 71 100
1 9 59 5 1 0 0 3 4 0 4 5 78 6 1 0 0 2 4 0 0 0 1 1 0 1 0 0 0 0 0 0 0 0 0 0 0 0 0 0 0 0 0 0 0
4 1 26 0 0 0 2 0 1 5 4 15 26 54 94 89 91 72 96 74 3 0 4 0 0 0 0 0 0 0 2 3 2 0 0 0 0 0 0 0 0 0 0 0 0
4 0 5 0 4 0 0 0 3 14 5 2 1 4 5 13 34 23 35 17 5 7 5 2 2 0 0 0 0 5 2 5 12 5 0 0 0 0 0 0 0 0 0 0 0
5 5 5 5 5 0 0 0 4 0 0 0 0 0 0 2 9 70 48 5 1 3 3 0 0 0 0 0 0 0 0 1 43 4 5 0 0 0 0 0 0 0 0 0 0
41 5 5 5 5 4 3 2 5 4 3 0 0 0 0 4 10 35 93 12 9 31 10 5 1 0 0 0 0 0 19 23 24 12 12 1 5 4 2 0 0 0 0 0 0
13 10 5 5 5 5 5 5 5 0 0 0 0 0 5 5 4 27 99 97 21 100 11 6 1 0 0 0 0 1 34 44 5 87 67 64 61 45 3 4 2 0 0 0 0
40 9 28 5 5 5 5 5 5 5 5 2 4 0 5 5 1 5 44 33 87 28 12 0 5 5 0 1 1 5 19 5 51 72 82 94 17 100 6 66 0 0 0 0 0
72 54 13 31 6 5 5 5 5 5 5 34 5 2 1 2 52 49 80 98 56 55 35 7 5 39 16 85 95 92 95 24 27 92 76 89 11 5 1 4 4 0 5 77 1
10 13 19 8 61 6 5 7 5 5 5 5 22 55 14 2 4 35 67 100 74 71 97 76 23 25 27 94 52 100 99 99 96 100 76 64 2 8 1 0 6 20 66 86 8
5 17 6 56 6 5 5 5 5 5 5 4 0 2 1 2 3 56 53 99 45 5 90 82 16 4 5 33 81 62 93 100 98 86 100 33 55 5 5 6 90 99 100 100 8
28 6 26 80 96 6 5 5 5 5 0 0 0 3 1 4 5 6 99 88 100 20 28 32 5 10 90 71 83 61 96 100 100 100 100 98 10 5 2 91 97 100 100 100 77
97 97 19 9 100 82 20 5 5 5 2 1 4 5 4 3 5 5 72 100 100 69 5 5 20 21 99 94 100 100 62 65 100 100 100 100 100 6 8 59 100 100 100 100 100

GFSSW_prec_cloud_063.txt.gz
Cloud_Cover
5 2 3 0 0 7 20 0 27 0 16 48 3 4 2 10 2 0 0 0 0 0 0 0 0 37 100 100 100 100 100 98 100 100 100 100 100 100 100 100 93 6 53 5 88
100 100 100 100 18 16 12 30 1 10 81 48 0 7 8 27 99 17 0 0 0 0 0 0 0 4 26 100 100 100 100 100 100 100 100 100 100 100 100 100 100 95 100 25 25
100 100 100 100 100 59 63 50 0 8 11 1 2 12 8 48 40 0 0 0 0 0 0 0 0 0 1 97 100 100 100 100 100 100 100 100 100 100 96 100 57 28 94 100 100
99 100 100 100 100 100 69 12 2 5 5 6 15 33 25 12 0 0 0 1 5 0 0 0 0 0 0 9 100 100 100 100 100 100 100 100 100 100 100 100 84 22 98 95 100
16 2 4 4 4 97 100 88 4 8 9 3 28 45 3 0 0 3 5 10 64 3 0 0 0 0 0 4 79 100 100 100 100 100 100 100 100 100 100 100 100 100 90 95 100
100 100 86 26 100 100 72 100 86 41 18 16 30 0 7 1 5 5 6 63 100 28 5 0 0 0 0 0 5 78 100 100 100 100 100 100 100 100 100 100 100 99 100 97 100
100 100 100 100 100 100 100 27 3 10 14 9 12 0 5 12 5 5 6 100 100 73 8 0 0 0 0 0 0 5 63 100 100 100 100 100 100 100 100 100 100 100 100 100 100
100 100 100 100 100 100 100 29 26 6 1 0 0 0 0 30 7 31 99 46 90 99 6 5 0 0 0 0 0 0 4 99 100 100 100 100 100 100 100 100 100 100 79 73 86
100 100 100 100 100 100 73 15 4 0 0 0 0 0 0 0 5 23 73 100 57 20 5 5 5 0 0 0 0 0 0 0 60 100 100 100 100 100 100 100 100 100 100 100 100
100 13 100 100 100 98 28 0 0 0 0 0 0 0 0 0 0 96 5 48 98 33 5 3 0 0 0 0 0 0 0 0 65 100 99 100 100 100 100 100 100 100 100 100 100
99 43 100 100 100 69 28 4 0 0 0 0 0 0 0 0 0 2 16 24 5 74 69 5 0 0 0 0 0 0 0 0 3 100 100 100 100 100 100 100 100 100 100 100 100
42 31 100 67 19 23 17 0 0 0 0 0 0 0 0 2 4 4 5 0 14 5 5 34 5 2 0 0 0 0 0 0 0 4 3 55 100 100 100 100 100 100 100 100 100
5 36 100 61 0 0 0 0 4 4 4 1 0 0 0 0 0 3 0 0 4 2 1 5 5 5 4 0 0 0 0 0 0 0 0 0 30 100 100 100 100 100 100 100 100
10 73 100 95 5 4 0 0 0 3 4 18 34 5 0 0 0 0 0 0 0 0 0 0 0 3 4 5 1 0 0 0 0 0 0 0 0 0 6 76 100 100 99 100 100
34 98 100 62 5 5 5 5 0 1 4 6 20 5 1 2 0 0 0 0 0 0 0 0 0 0 0 0 0 0 0 0 0 0 0 0 0 0 0 0 57 100 100 68 32
47 56 95 11 5 1 4 5 5 4 3 1 4 4 5 59 68 22 37 14 0 0 0 0 0 0 0 0 0 0 0 0 0 0 1 0 0 0 0 0 0 0 0 34 100
28 5 58 5 5 5 0 0 1 5 3 1 0 0 0 4 3 24 72 99 100 86 29 3 0 0 0 0 0 0 0 2 1 0 0 0 2 0 0 0 0 0 0 0 2
6 5 5 5 5 5 5 0 2 0 0 0 0 1 2 0 0 0 5 5 20 96 100 100 82 8 0 0 0 0 0 3 5 3 0 0 0 0 0 0 0 0 0 0 0
5 5 5 5 5 5 5 7 5 0 0 0 0 0 0 0 0 0 4 5 5 5 75 96 100 100 9 5 0 0 0 0 0 0 4 0 0 0 0 0 0 0 0 0 0
38 10 12 5 5 5 5 5 24 5 1 0 0 0 0 0 0 0 4 5 4 0 27 99 20 100 93 6 4 0 3 28 57 41 10 0 0 0 0 0 3 0 0 0 0
68 16 5 35 50 22 6 30 33 9 5 0 0 0 0 0 0 0 0 2 1 4 100 65 5 100 100 89 4 0 0 11 40 66 53 68 2 0 63 66 56 2 0 0 0
97 84 46 6 93 99 81 81 6 39 41 5 3 5 0 0 0 0 0 0 5 58 62 98 36 100 88 3 0 0 0 1 61 29 62 60 18 19 97 48 5 5 4 0 0
67 100 98 31 51 100 100 34 93 31 7 79 5 5 0 4 19 4 0 1 81 93 100 94 52 100 82 1 1 5 6 20 11 66 90 91 15 3 5 22 5 2 0 0 2
100 68 100 100 97 98 100 100 100 39 5 98 5 4 5 66 67 24 5 4 18 92 93 100 100 90 100 5 5 81 5 63 100 100 65 66 2 91 0 1 1 0 0 3 7
100 22 77 99 96 49 100 100 100 100 5 16 5 0 3 1 4 0 0 2 32 100 51 100 100 65 15 6 5 5 5 8 36 34 94 12 73 7 56 4 4 4 93 100 100
100 100 49 100 100 82 92 100 100 100 5 5 5 0 5 5 4 5 4 6 23 99 81 90 99 9 13 5 5 44 5 5 100 81 69 90 100 100 70 29 6 100 100 100 100
100 100 95 92 99 100 62 100 100 100 13 5 5 2 0 0 0 1 1 10 29 91 100 97 84 76 48 56 57 48 28 57 100 98 44 100 100 100 100 70 80 51 100 100 100

GFSSW_prec_cloud_069.txt.gz
Cloud_Cover
31 6 43 57 83 92 100 98 5 15 8 10 8 10 6 50 12 1 0 0 0 0 0 0 0 4 5 55 42 52 99 100 100 100 100 100 100 100 100 100 31 4 2 0 0
100 100 100 100 93 92 77 2 22 12 12 10 10 7 48 94 35 0 0 0 0 0 0 0 0 0 0 3 5 5 38 100 100 100 100 100 100 100 100 100 98 95 3 5 5
100 100 100 100 100 100 64 100 13 0 8 8 7 4 13 98 7 0 0 0 0 0 0 0 0 0 0 0 0 5 19 80 100 100 100 100 100 100 100 100 100 100 93 24 36
100 100 100 100 100 100 100 100 99 4 7 9 18 16 93 17 0 0 0 0 0 0 0 0 0 0 0 0 0 0 12 22 6 18 96 100 100 100 100 100 100 100 100 75 99
100 100 100 100 100 100 100 100 100 15 15 18 19 11 1 0 0 0 0 0 0 0 0 0 0 0 0 0 0 0 0 0 5 7 82 100 100 100 100 100 100 100 100 100 100
100 100 100 100 100 100 100 100 100 90 36 21 29 9 0 0 0 0 0 0 0 0 0 0 0 0 0 0 0 0 0 0 0 10 62 92 100 100 100 100 100 100 100 100 100
100 100 100 100 100 100 100 100 71 100 54 23 18 12 0 0 0 0 0 0 0 0 0 0 0 0 0 0 0 0 0 0 0 0 0 47 32 100 100 100 100 100 100 100 100
100 100 100 100 100 100 100 100 100 64 11 22 11 2 0 0 0 0 0 0 0 0 0 0 0 0 0 0 0 0 0 0 0 0 0 0 85 100 100 100 100 100 100 100 100
32 100 100 100 100 100 100 62 20 15 27 19 20 0 0 0 0 0 0 0 0 0 1 0 0 0 5 5 5 3 0 0 0 0 0 0 38 100 100 100 100 100 100 100 100
58 100 100 100 100 100 11 0 0 0 0 0 0 0 0 0 0 0 0 0 0 0 0 5 0 5 7 71 5 5 4 0 0 0 0 0 0 21 99 100 100 100 100 100 100
100 100 100 100 100 100 16 0 0 0 0 0 0 0 0 0 0 0 0 0 0 0 0 0 5 5 5 54 80 5 5 5 0 0 0 0 0 0 2 100 100 100 100 100 100
100 100 100 100 66 13 5 5 5 2 0 0 0 0 0 0 0 0 0 0 0 0 0 0 0 4 5 5 15 74 13 18 5 0 0 0 0 0 0 2 100 100 100 100 100
100 100 100 100 17 5 9 5 5 5 4 0 0 0 0 0 0 1 4 0 0 0 0 5 5 5 3 5 20 26 56 5 5 2 0 0 0 0 0 0 32 100 100 100 100
100 100 100 98 55 28 5 5 5 5 5 5 4 4 0 0 1 0 1 5 78 24 0 0 0 5 5 5 5 5 5 5 5 29 2 0 0 0 0 0 0 3 100 100 100
100 100 100 94 13 27 17 5 6 5 5 5 5 5 5 0 0 1 0 0 0 24 98 55 5 0 0 0 5 5 6 5 0 10 6 6 0 0 0 0 0 0 1 100 100
84 82 68 100 42 18 67 44 13 98 87 18 9 6 5 5 2 0 0 0 0 0 0 8 40 100 34 3 0 0 4 21 27 4 15 90 3 0 0 0 0 0 0 0 33
23 5 29 42 100 91 48 66 64 42 100 100 97 80 24 29 5 4 0 0 0 0 0 0 0 1 28 78 70 5 0 0 2 7 33 6 6 56 0 0 0 0 0 0 0
80 6 53 87 100 100 100 95 84 90 81 100 100 92 45 72 68 5 0 0 0 0 4 4 4 0 0 0 3 21 40 9 2 0 1 5 6 9 5 0 0 0 0 0 0
100 72 19 98 100 100 100 100 100 100 100 100 100 100 74 6 32 5 2 0 0 0 4 5 5 5 5 5 3 4 4 10 5 1 0 0 0 5 33 0 0 0 0 0 0
82 98 69 73 100 100 100 100 100 100 100 100 100 100 100 81 41 5 5 0 0 0 0 1 4 2 3 0 0 0 1 10 28 3 5 0 1 5 1 0 0 0 0 0 0
41 53 34 41 68 100 94 92 100 94 100 100 100 100 100 100 100 50 7 0 0 0 0 3 3 8 5 12 5 2 4 90 100 12 5 4 5 20 5 0 0 0 1 0 0
72 38 22 5 20 100 100 100 100 100 100 100 100 100 100 100 100 100 41 0 0 0 5 26 66 82 5 6 5 71 80 97 100 60 11 5 2 24 4 0 0 5 5 1 0
70 82 19 34 36 100 100 100 100 100 100 100 100 100 100 100 13 97 54 5 15 20 85 70 54 53 93 53 83 75 94 99 76 100 87 96 2 0 0 0 5 0 0 0 0
100 96 84 71 54 97 100 100 100 100 100 100 100 100 100 100 71 23 5 47 88 100 100 99 79 76 81 100 100 66 100 100 100 100 98 83 5 2 0 3 4 3 0 0 0
100 98 100 33 16 41 100 100 100 100 100 100 100 100 100 100 68 23 5 4 2 3 5 5 67 80 99 100 95 92 61 28 87 98 81 69 9 0 5 5 2 0 0 0 0
100 100 100 62 70 47 100 84 100 100 100 100 100 100 88 100 29 5 5 4 5 3 5 5 56 32 100 100 78 69 100 100 12 29 5 5 10 8 2 0 2 6 5 5 42
100 100 100 94 44 37 82 62 100 100 100 100 100 100 100 100 70 5 5 1 4 25 93 87 86 92 100 100 99 99 100 7 4 5 3 5 2 5 1 5 50 28 5 47 99

GFSSW_prec_cloud_072.txt.gz
Cloud_Cover
100 100 100 100 100 100 96 71 9 7 17 12 11 8 10 11 0 0 0 0 0 0 0 0 2 5 5 8 80 62 100 100 100 100 100 100 100 100 100 100 100 21 86 63 34
100 100 100 100 100 100 100 65 72 4 2 12 10 14 12 6 0 0 0 0 0 0 0 0 0 0 4 5 3 5 52 100 100 100 100 100 100 100 100 100 100 100 46 5 7
100 100 100 100 100 100 100 100 100 39 6 14 21 16 2 0 0 0 0 0 0 0 0 0 0 0 0 0 0 0 6 92 55 6 100 47 100 100 100 100 100 100 100 100 100
100 100 100 100 100 100 100 100 100 9 14 15 25 15 0 0 0 0 0 0 0 0 0 0 0 0 0 0 0 0 0 5 35 9 6 27 24 100 100 100 100 100 100 100 99
100 100 100 100 100 100 100 100 100 98 16 12 10 8 0 0 0 0 0 0 0 0 0 0 0 0 0 0 0 0 0 0 4 5 25 5 5 43 100 100 100 100 100 100 52
3 13 99 100 100 100 100 100 92 100 17 14 11 3 0 0 0 0 0 0 0 0 0 0 0 0 0 0 0 0 0 0 0 0 5 5 5 4 42 100 100 100 100 100 100
100 63 100 100 100 100 100 100 93 100 87 15 13 0 0 0 0 0 0 0 0 0 0 0 0 0 0 0 0 0 0 0 0 0 0 0 4 5 4 5 91 100 100 100 100
19 77 30 90 97 100 100 100 100 35 22 0 7 0 0 0 0 0 0 0 0 0 0 0 0 0 0 0 0 0 0 0 0 0 0 0 0 0 3 4 16 100 100 100 100
67 100 100 100 100 100 99 31 18 11 8 0 1 0 0 0 0 0 0 0 0 0 0 0 0 0 0 0 0 0 0 0 0 0 0 0 0 0 0 0 90 100 100 100 100
100 100 100 100 99 52 5 0 1 0 0 0 0 0 0 0 0 0 0 0 0 0 0 0 0 0 0 0 0 0 0 0 0 0 0 0 0 0 0 0 69 100 100 100 100
100 100 100 100 59 5 8 5 2 0 0 0 0 0 0 0 0 0 0 0 0 0 0 0 0 0 0 0 0 0 0 5 5 0 0 0 0 0 0 0 0 100 100 100 100
100 100 100 64 6 5 9 5 5 5 1 0 0 0 0 0 0 0 0 0 0 0 0 0 0 0 0 0 0 0 0 5 5 4 4 1 0 0 0 0 0 58 100 100 100
100 99 100 94 5 17 5 5 5 5 5 5 5 5 3 0 0 0 0 0 0 0 0 0 0 0 0 0 0 0 0 2 16 46 10 5 0 0 0 0 0 39 100 100 100
100 96 100 34 44 44 22 5 13 5 5 5 8 5 5 5 4 0 4 0 0 0 0 0 0 4 0 0 0 4 4 5 5 29 100 5 27 0 0 0 0 0 100 100 100
100 95 34 97 72 11 21 18 22 63 89 25 18 5 5 6 5 5 5 5 0 0 0 2 0 0 5 6 2 3 3 5 5 5 19 98 11 76 5 0 0 0 0 92 100
100 40 5 36 66 95 30 7 39 78 93 100 58 31 20 28 30 6 5 5 5 0 0 0 4 0 0 0 20 9 4 3 5 5 5 87 73 95 87 4 0 0 0 0 69
99 100 49 14 16 74 60 24 32 81 91 100 100 100 42 60 78 100 42 6 6 5 4 5 12 3 0 1 0 1 7 80 82 94 9 5 16 100 80 5 3 0 0 0 0
95 100 97 51 59 70 43 44 66 68 99 92 100 100 100 100 90 100 94 96 80 8 2 4 46 54 6 1 68 100 100 100 100 90 80 3 17 15 27 10 6 4 0 0 0
100 100 100 63 68 20 39 33 62 100 100 96 87 100 100 100 100 100 89 62 46 55 5 65 100 64 2 5 5 90 100 95 97 85 10 3 1 5 12 5 5 27 5 0 0
100 100 98 100 28 31 13 49 33 100 100 100 88 100 100 100 100 100 96 46 8 8 2 22 72 93 100 22 8 61 63 100 81 17 26 32 76 54 12 5 5 2 6 13 16
100 100 94 100 92 47 37 39 16 87 100 100 100 100 100 100 100 100 80 7 7 5 20 12 95 60 98 98 86 88 69 99 100 89 100 99 96 68 41 10 5 5 5 5 24
100 100 100 100 100 61 11 89 59 46 71 100 100 100 100 100 100 100 98 99 39 5 98 99 100 100 100 100 100 100 100 100 100 100 100 100 6 98 100 26 5 58 49 5 5
100 100 100 100 100 84 27 68 94 88 100 100 100 100 100 100 100 100 94 99 45 8 100 100 60 100 100 100 69 91 98 100 100 100 94 98 58 100 100 99 85 66 89 10 5
100 100 100 100 100 100 100 95 93 97 87 99 100 100 100 100 100 74 63 98 89 91 73 32 46 100 100 100 100 100 100 100 100 100 89 34 100 100 100 100 96 11 55 47 5
100 100 100 100 100 100 100 100 88 84 95 100 100 100 100 100 100 71 49 55 40 86 22 97 94 100 100 100 100 100 100 100 100 100 96 96 98 100 46 92 89 19 5 5 5
100 100 100 100 100 100 97 98 98 31 79 100 100 100 100 100 81 88 5 20 5 19 34 51 61 100 100 100 100 100 91 100 100 99 100 100 54 100 6 42 97 100 15 62 67
100 100 100 100 100 100 100 100 84 46 84 100 100 100 100 100 46 30 5 5 5 5 86 100 83 84 83 100 100 99 93 52 8 5 56 79 37 100 100 100 100 98 80 89 46

GFSSW_prec_cloud_075.txt.gz
Cloud_Cover
95 100 100 100 100 100 100 100 8 10 2 1 7 0 10 3 0 0 0 0 0 0 0 1 5 19 5 5 42 90 100 97 100 100 100 100 100 100 100 100 100 61 100 98 100
100 100 100 100 100 100 100 100 100 87 7 4 4 12 5 4 0 0 0 0 0 0 0 0 0 5 4 5 10 5 16 92 99 100 100 100 100 100 100 100 100 100 99 61 96
100 100 100 100 100 100 100 100 100 100 10 4 7 2 17 1 0 0 0 0 0 0 0 0 0 0 0 4 5 5 9 96 71 59 100 100 100 100 100 100 100 100 100 46 100
99 99 76 100 100 100 96 100 86 100 2 0 0 0 0 0 0 0 0 0 0 0 0 0 0 0 0 0 0 0 2 5 7 23 5 53 100 100 100 100 100 100 100 100 100
94 87 68 58 94 98 100 100 100 17 15 0 0 0 0 0 0 0 0 0 0 0 0 0 0 0 0 0 0 0 0 0 2 5 5 5 66 100 100 100 100 100 100 100 100
84 99 96 100 100 66 100 100 100 1 15 0 0 9 0 0 0 0 0 0 0 0 0 0 0 0 0 0 0 0 0 0 0 0 1 5 7 8 38 100 100 100 100 100 100
0 100 100 100 100 98 95 100 78 11 1 0 0 0 0 0 0 0 0 0 0 0 0 0 0 0 0 0 0 0 0 0 0 0 0 0 1 5 5 0 6 100 100 100 100
57 92 100 100 100 100 58 9 16 20 2 0 0 0 0 0 0 0 0 0 0 0 0 0 0 0 0 0 0 0 0 0 0 0 0 0 0 0 0 0 0 3 97 67 100
99 100 97 90 100 46 4 0 1 2 0 0 1 0 0 0 0 0 0 0 0 0 0 0 0 0 0 0 0 0 0 0 0 0 0 0 0 0 0 0 0 0 5 8 100
95 100 100 100 17 5 5 9 4 26 0 0 0 0 0 0 0 0 0 0 0 0 0 0 0 0 0 0 0 0 3 3 0 2 0 0 0 0 0 0 0 0 0 3 45
100 100 100 89 26 5 44 5 5 5 5 0 1 0 0 0 0 0 0 0 0 0 0 0 0 0 0 0 0 0 0 0 0 0 0 0 0 0 0 0 0 0 0 0 0
76 92 100 43 7 6 12 5 5 5 5 5 5 0 0 0 0 0 0 0 0 0 0 0 0 0 0 0 0 0 0 0 0 0 0 0 0 0 0 0 0 0 0 0 0
99 48 98 20 6 22 5 5 5 5 5 94 10 5 5 1 0 0 0 0 0 0 0 0 0 0 0 0 0 0 0 0 1 4 2 1 0 0 0 0 0 0 0 0 0
100 69 87 8 55 5 12 5 6 12 22 54 90 99 5 17 5 2 4 5 4 0 0 0 0 0 0 0 0 0 5 4 5 2 0 3 1 2 7 4 0 0 0 0 0
100 100 96 98 33 37 5 5 5 11 97 88 52 54 90 36 5 28 23 7 15 5 4 0 5 0 0 0 5 5 9 56 5 5 4 1 4 0 23 5 5 5 0 0 0
100 100 100 57 34 8 30 5 5 12 76 99 98 30 14 38 22 7 12 59 72 97 5 5 3 5 5 5 5 5 5 13 21 40 64 4 76 1 52 92 7 5 2 0 0
100 100 100 100 82 48 34 24 42 6 6 50 84 92 18 5 18 14 10 15 59 97 23 53 14 5 5 5 5 91 99 72 100 100 78 91 51 5 100 11 74 90 27 5 0
100 100 100 100 100 72 51 35 10 35 5 24 63 74 88 53 78 100 100 100 63 99 18 6 6 96 100 100 56 100 100 100 100 100 100 100 57 34 20 89 3 11 99 29 5
100 100 100 100 100 100 85 50 76 68 43 6 97 81 100 70 100 87 100 100 100 83 92 100 100 100 94 73 100 99 96 72 100 46 100 73 88 100 41 15 1 4 5 57 28
100 100 100 100 100 100 98 92 35 74 71 48 84 100 95 100 75 98 100 100 100 90 38 72 95 100 100 100 50 67 78 100 100 83 100 100 100 100 100 97 9 3 5 5 26
100 100 100 100 100 100 100 95 100 48 56 60 88 100 94 93 100 100 100 100 96 92 94 100 100 65 100 100 100 100 100 100 100 94 71 100 97 100 100 100 100 90 28 5 5
100 100 100 100 100 100 100 100 100 82 54 89 100 100 100 99 92 100 100 100 100 97 100 100 100 26 100 100 100 12 51 95 10 100 100 100 78 66 100 86 98 37 5 83 99
100 100 100 100 100 100 100 100 100 100 100 100 37 100 100 100 66 100 100 100 99 52 100 96 79 97 92 100 100 100 98 100 100 100 89 100 13 100 100 100 100 99 39 98 76
100 100 100 100 100 100 100 100 100 100 100 100 54 100 100 77 98 96 100 100 100 99 92 48 40 100 100 100 100 89 98 100 98 100 64 100 100 100 100 100 100 99 98 98 12
100 100 100 100 100 100 100 100 90 100 97 100 99 100 100 100 73 100 100 93 96 100 100 98 100 100 100 100 100 97 96 96 100 69 99 83 100 100 99 100 100 48 88 88 5
100 100 100 100 100 100 98 100 74 93 99 71 100 100 98 98 100 100 100 61 43 31 5 51 96 100 100 100 100 100 100 100 100 82 100 100 100 100 99 100 88 52 100 93 23
100 100 100 100 100 100 93 74 100 100 82 50 91 85 93 100 100 100 100 33 5 5 5 98 100 100 77 100 100 86 99 100 100 100 100 78 33 99 100 99 87 83 5 100 78